Date,TemperatureHighF,TemperatureAvgF,TemperatureLowF,DewpointHighF,DewpointAvgF,DewpointLowF,HumidityHigh,HumidityAvg,HumidityLow,PressureMaxIn,PressureMinIn,WindSpeedMaxMPH,WindSpeedAvgMPH,GustSpeedMaxMPH,PrecipitationSumIn
2014-1-1,51.2,39.3,29.3,41.0,33.5,28.0,95,81,55,30.33,30.04,8,1,0,0.01
2014-1-2,49.0,38.7,23.8,48.0,34.2,14.0,96,84,64,30.29,29.85,27,9,0,0.40
2014-1-3,31.7,24.3,18.9,17.0,13.6,10.0,76,64,42,30.48,30.30,20,6,0,0.00
2014-1-4,46.7,33.9,21.4,34.0,21.9,14.0,84,64,42,30.36,30.11,13,2,0,0.00
2014-1-5,53.9,42.6,26.3,52.0,38.5,23.0,92,85,78,30.11,29.70,27,4,0,0.27
2014-1-6,26.0,16.4,9.2,23.0,7.7,0.0,88,69,52,30.56,30.02,23,12,0,0.00
2014-1-7,24.7,14.3,6.5,9.0,2.2,-3.0,75,60,40,30.61,30.51,14,4,0,0.00
2014-1-8,38.8,25.0,12.5,26.0,14.5,2.0,85,67,28,30.59,30.42,8,1,0,0.00
2014-1-9,49.6,38.1,28.5,42.0,29.1,18.0,89,71,49,30.45,30.29,7,1,0,0.00
2014-1-10,53.2,46.4,41.7,52.0,44.1,40.0,97,92,88,30.29,29.82,7,1,0,0.00
2014-1-11,61.7,54.7,40.9,60.0,44.9,35.0,97,73,39,29.98,29.65,15,4,0,0.92
2014-1-12,60.0,44.3,31.9,41.0,34.2,27.0,96,72,29,30.16,29.97,8,1,0,0.00
2014-1-13,49.5,47.0,42.7,48.0,42.9,34.0,96,86,57,30.07,29.79,13,1,0,0.36
2014-1-14,58.8,49.2,41.2,50.0,39.4,31.0,97,72,36,29.99,29.79,8,1,0,0.05
2014-1-15,46.2,38.8,27.9,38.0,23.9,13.0,86,57,31,30.12,29.96,21,8,0,0.00
2014-1-16,47.9,34.1,20.3,25.0,19.8,17.0,87,59,34,30.13,29.89,12,3,0,0.00
2014-1-17,43.7,36.6,29.1,30.0,23.1,17.0,80,59,40,30.14,29.91,19,6,0,0.00
2014-1-18,46.4,35.4,19.9,23.0,15.8,11.0,84,48,25,30.21,29.89,14,5,0,0.00
2014-1-19,51.8,42.0,33.4,30.0,27.1,23.0,76,57,41,30.12,29.89,12,3,0,0.00
2014-1-20,61.9,47.2,28.7,31.0,28.6,25.0,86,52,30,30.03,29.83,12,2,0,0.00
2014-1-21,49.4,35.3,19.8,32.0,23.8,10.0,71,63,49,30.15,29.75,24,11,0,0.00
2014-1-22,36.6,24.0,15.7,15.0,8.8,0.0,76,56,21,30.21,30.08,15,4,0,0.00
2014-1-23,29.6,23.5,16.6,18.0,10.3,1.0,76,58,43,30.68,30.20,22,8,0,0.00
2014-1-24,30.2,18.7,10.7,8.0,3.0,-4.0,71,52,29,30.69,30.22,14,3,0,0.00
2014-1-25,45.0,31.9,15.6,22.0,14.0,4.0,64,49,35,30.22,29.90,18,5,0,0.00
2014-1-26,55.3,41.3,24.7,34.0,27.2,21.0,86,60,39,29.98,29.82,19,2,0,0.00
2014-1-27,46.5,35.7,22.7,34.0,19.2,2.0,81,53,28,30.24,29.81,21,9,0,0.00
2014-1-28,22.6,18.7,15.4,14.0,7.8,3.0,84,63,48,30.36,30.23,15,11,0,0.00
2014-1-29,29.8,19.0,11.6,5.0,2.4,-1.0,68,50,28,30.45,30.34,13,4,0,0.00
2014-1-30,41.7,24.3,8.0,16.0,8.7,2.0,86,57,19,30.37,30.14,12,1,0,0.00
2014-1-31,55.2,34.1,20.2,32.0,21.2,15.0,85,62,35,30.23,30.08,6,1,0,0.00
2014-2-1,63.8,43.7,26.1,46.0,34.9,20.0,91,72,49,30.13,30.02,8,1,0,0.00
2014-2-2,60.3,48.8,39.9,56.0,47.1,38.0,100,94,79,30.05,29.80,11,1,0,1.91
2014-2-3,44.5,38.1,32.8,39.0,35.2,32.0,96,89,78,30.19,29.85,18,4,0,0.67
2014-2-4,55.6,44.8,33.0,54.0,43.1,32.0,97,93,85,30.17,29.76,14,2,0,0.30
2014-2-5,57.5,38.7,28.5,57.0,34.1,22.0,97,84,72,30.33,29.79,20,9,0,0.36
2014-2-6,33.2,29.8,27.1,26.0,23.5,22.0,85,77,68,30.40,30.29,20,8,0,0.00
2014-2-7,37.8,31.2,25.3,29.0,24.8,22.0,87,77,61,30.41,30.26,10,2,0,0.00
2014-2-8,48.3,39.4,31.7,37.0,32.5,27.0,87,77,63,30.26,30.11,7,0,0,0.00
2014-2-9,54.9,43.2,34.9,42.0,37.3,33.0,94,81,59,30.15,30.02,15,2,0,0.00
2014-2-10,40.4,36.4,33.5,38.0,32.7,26.0,94,87,74,30.20,30.07,12,6,0,0.01
2014-2-11,36.8,32.7,27.8,32.0,28.5,26.0,94,85,75,30.28,30.16,13,4,0,0.18
2014-2-12,35.9,33.3,31.8,33.0,31.3,29.0,96,92,87,30.16,29.84,13,3,0,0.39
2014-2-13,45.8,35.9,30.4,31.0,29.3,26.0,96,78,50,29.93,29.82,11,2,0,0.67
2014-2-14,51.5,40.4,28.0,43.0,35.0,26.0,94,82,62,29.91,29.68,14,2,0,0.25
2014-2-15,41.6,34.7,29.5,36.0,25.4,20.0,88,71,46,30.16,29.79,23,6,0,0.00
2014-2-16,61.3,43.6,28.4,35.0,30.7,26.0,91,65,29,30.13,30.07,10,1,0,0.00
2014-2-17,60.6,48.2,35.1,55.0,43.3,32.0,96,84,50,30.15,29.96,11,2,0,0.07
2014-2-18,68.4,52.9,36.0,58.0,46.2,35.0,97,81,47,30.19,29.96,10,2,0,0.02
2014-2-19,66.2,62.2,54.0,60.0,57.7,52.0,96,86,78,30.01,29.93,18,4,0,0.00
2014-2-20,71.2,64.7,54.3,63.0,60.0,53.0,97,85,72,29.95,29.73,18,6,0,0.45
2014-2-21,61.3,47.8,37.1,59.0,33.1,21.0,94,62,26,30.10,29.76,26,4,0,0.90
2014-2-22,66.4,47.3,32.6,40.0,30.9,18.0,93,61,16,30.18,29.99,13,1,0,0.00
2014-2-23,71.8,55.1,41.6,42.0,36.0,31.0,85,53,23,30.03,29.89,10,2,0,0.00
2014-2-24,56.5,46.7,38.3,40.0,32.8,27.0,82,61,33,30.18,30.02,13,4,0,0.00
2014-2-25,57.4,45.8,37.6,42.0,35.1,26.0,93,69,48,30.12,29.96,14,2,0,0.17
2014-2-26,43.5,34.9,28.0,30.0,19.5,9.0,69,55,35,30.06,29.93,22,11,0,0.01
2014-2-27,45.5,32.6,19.6,21.0,14.4,9.0,77,50,29,30.08,29.98,14,3,0,0.00
2014-2-28,53.3,40.5,26.4,40.0,22.8,10.0,93,56,20,30.15,30.02,9,2,0,0.11
2014-3-1,62.2,50.8,41.6,46.0,40.8,35.0,93,70,52,30.21,30.10,7,1,0,0.00
2014-3-2,73.9,60.9,46.9,56.0,50.5,43.0,90,70,51,30.13,29.80,15,4,0,0.00
2014-3-3,64.9,34.5,26.2,57.0,30.9,22.0,95,86,68,30.23,29.75,26,10,0,0.52
2014-3-4,43.2,35.4,26.6,36.0,31.0,24.0,92,84,71,30.21,30.11,12,3,0,0.00
2014-3-5,58.1,44.1,33.8,40.0,35.7,32.0,93,74,44,30.17,30.03,10,2,0,0.00
2014-3-6,48.9,42.2,37.9,39.0,33.5,23.0,93,74,37,30.09,29.97,11,2,0,0.10
2014-3-7,64.0,49.1,38.6,43.0,38.0,35.0,94,70,38,30.03,29.92,8,1,0,0.00
2014-3-8,67.1,52.1,36.5,45.0,40.9,35.0,94,69,42,30.14,30.01,12,2,0,0.00
2014-3-9,65.6,54.6,44.0,47.0,43.6,41.0,90,68,48,30.20,30.09,12,2,0,0.00
2014-3-10,71.3,57.2,45.8,50.0,45.6,43.0,89,67,41,30.11,29.88,16,2,0,0.00
2014-3-11,76.4,60.6,43.2,59.0,50.5,41.0,94,72,45,29.88,29.64,14,2,0,0.01
2014-3-12,65.2,53.0,39.4,59.0,45.7,26.0,93,77,59,30.05,29.55,26,10,0,0.01
2014-3-13,52.9,42.1,33.3,33.0,27.6,24.0,76,58,36,30.24,30.05,16,5,0,0.00
2014-3-14,66.7,50.7,31.9,38.0,32.2,29.0,91,55,28,30.25,30.04,15,3,0,0.00
2014-3-15,67.3,56.7,44.1,51.0,43.3,37.0,80,62,45,30.09,29.91,8,1,0,0.00
2014-3-16,59.9,56.4,50.9,57.0,53.8,48.0,96,91,69,29.90,29.55,15,2,0,1.69
2014-3-17,49.7,41.0,38.9,48.0,39.1,37.0,96,93,89,29.84,29.60,13,6,0,0.02
2014-3-18,51.3,46.0,39.4,46.0,42.2,38.0,97,87,80,30.00,29.77,18,2,0,0.00
2014-3-19,57.5,53.0,48.7,51.0,48.2,46.0,95,84,74,30.05,29.98,14,3,0,0.00
2014-3-20,64.4,52.3,41.7,48.0,35.8,25.0,95,58,25,30.15,30.04,11,4,0,0.00
2014-3-21,69.9,51.9,34.8,42.0,34.6,28.0,93,59,22,30.12,29.95,10,1,0,0.00
2014-3-22,72.1,58.7,44.6,52.0,45.4,36.0,79,63,44,30.02,29.94,9,2,0,0.00
2014-3-23,55.7,49.9,44.3,50.0,39.8,31.0,92,70,45,30.20,29.93,23,9,0,0.31
2014-3-24,56.6,47.1,36.1,33.0,28.0,16.0,71,50,21,30.22,29.96,10,4,0,0.00
2014-3-25,48.9,42.2,36.8,29.0,22.7,16.0,59,46,34,30.23,29.94,21,11,0,0.00
2014-3-26,50.9,39.8,29.6,28.0,18.7,12.0,72,45,23,30.37,30.20,13,4,0,0.00
2014-3-27,69.0,54.5,37.2,50.0,28.7,20.0,80,40,21,30.22,29.98,16,5,0,0.09
2014-3-28,64.5,58.9,54.9,57.0,54.6,50.0,94,86,75,30.04,29.84,14,2,0,0.13
2014-3-29,60.8,54.3,46.2,58.0,50.2,39.0,96,86,76,30.12,29.72,22,8,0,0.46
2014-3-30,62.8,50.1,42.0,40.0,36.7,34.0,79,62,35,30.20,30.09,16,6,0,0.00
2014-3-31,77.5,54.1,35.5,43.0,36.7,26.0,94,60,15,30.18,30.00,7,1,0,0.00
2014-4-1,81.2,66.9,51.1,46.0,40.4,30.0,76,42,16,30.10,29.97,12,2,0,0.00
2014-4-2,79.0,64.3,50.2,60.0,53.6,45.0,87,70,45,30.07,29.97,14,2,0,0.00
2014-4-3,78.0,69.7,62.1,63.0,60.7,57.0,88,74,57,29.99,29.82,16,4,0,0.00
2014-4-4,69.5,63.4,54.6,63.0,57.6,44.0,93,81,64,29.98,29.74,14,6,0,0.28
2014-4-5,61.4,52.7,45.3,44.0,39.2,36.0,84,62,42,30.10,29.99,12,3,0,0.00
2014-4-6,63.9,54.7,48.8,53.0,45.5,40.0,95,73,49,30.03,29.75,9,2,0,1.18
2014-4-7,68.4,55.7,49.5,63.0,51.6,44.0,95,86,73,29.83,29.55,22,5,0,1.74
2014-4-8,63.3,53.5,41.3,48.0,42.6,39.0,93,69,43,29.87,29.70,12,4,0,0.00
2014-4-9,67.0,55.6,46.0,46.0,41.1,34.0,86,62,30,30.12,29.88,15,4,0,0.00
2014-4-10,76.0,59.0,39.9,47.0,40.4,37.0,91,56,26,30.20,30.05,22,3,0,0.00
2014-4-11,75.2,62.7,50.9,53.0,49.2,44.0,83,63,43,30.18,30.03,15,3,0,0.00
2014-4-12,79.6,66.1,51.3,59.0,52.7,49.0,93,66,38,30.15,29.99,9,2,0,0.00
2014-4-13,80.6,69.0,54.0,59.0,53.3,50.0,89,60,35,30.05,29.84,18,4,0,0.00
2014-4-14,71.4,64.5,58.8,62.0,59.0,55.0,95,83,61,29.90,29.69,23,3,0,1.12
2014-4-15,60.2,45.3,39.4,59.0,36.5,27.0,95,73,48,30.20,29.64,26,12,0,0.14
2014-4-16,64.5,48.9,36.3,39.0,30.5,25.0,68,51,32,30.27,30.13,15,4,0,0.00
2014-4-17,68.1,55.5,39.9,50.0,41.0,34.0,79,60,42,30.35,30.21,11,2,0,0.00
2014-4-18,62.0,57.6,52.4,50.0,45.5,40.0,85,65,53,30.25,30.11,8,2,0,0.00
2014-4-19,72.8,60.3,50.7,50.0,46.0,40.0,91,64,33,30.13,30.06,18,3,0,0.00
2014-4-20,76.9,61.2,46.6,52.0,48.1,43.0,94,66,31,30.21,30.05,9,1,0,0.00
2014-4-21,78.6,64.6,49.7,56.0,52.2,48.0,94,68,37,30.12,29.91,10,1,0,0.00
2014-4-22,73.3,63.7,59.9,65.0,60.4,56.0,96,89,71,29.90,29.79,6,0,0,0.59
2014-4-23,76.8,62.9,51.0,60.0,46.7,39.0,96,60,27,29.99,29.85,10,2,0,0.00
2014-4-24,81.2,64.4,46.1,60.0,50.8,44.0,95,65,35,29.98,29.77,12,2,0,0.05
2014-4-25,76.0,67.1,57.4,62.0,57.9,54.0,92,74,49,29.94,29.72,15,4,0,0.10
2014-4-26,83.6,65.0,51.5,57.0,52.4,45.0,97,70,27,29.99,29.88,7,1,0,0.01
2014-4-27,76.1,64.8,56.5,65.0,60.5,54.0,95,86,64,29.91,29.78,10,1,0,0.48
2014-4-28,79.9,72.2,65.4,69.0,66.5,63.0,92,83,67,29.79,29.55,13,4,0,0.51
2014-4-29,78.9,70.0,63.9,67.0,64.4,63.0,97,83,62,29.75,29.57,14,3,0,0.82
2014-4-30,73.6,65.5,56.5,64.0,57.0,46.0,94,76,48,29.96,29.68,15,3,0,0.21
2014-5-1,67.5,57.4,48.6,47.0,43.5,39.0,86,62,40,30.04,29.91,11,3,0,0.00
2014-5-2,69.9,59.1,47.0,49.0,44.4,41.0,89,61,40,29.96,29.88,11,2,0,0.00
2014-5-3,78.0,61.5,43.4,52.0,46.2,42.0,93,62,32,30.02,29.93,14,2,0,0.00
2014-5-4,85.4,68.2,50.1,56.0,52.3,47.0,91,61,33,30.07,29.94,10,2,0,0.00
2014-5-5,85.9,71.9,56.3,60.0,56.3,53.0,90,61,35,29.99,29.85,12,2,0,0.00
2014-5-6,84.7,70.5,56.0,60.0,56.5,53.0,91,65,36,29.95,29.86,12,2,0,0.00
2014-5-7,83.8,69.8,54.8,64.0,58.5,53.0,95,70,44,30.03,29.93,12,2,0,0.00
2014-5-8,85.0,72.1,58.9,64.0,60.9,57.0,94,70,43,30.13,30.01,13,2,0,0.00
2014-5-9,73.5,70.0,65.6,70.0,64.4,62.0,92,82,70,30.04,29.94,12,2,0,0.21
2014-5-10,78.3,70.4,63.9,67.0,64.3,62.0,93,82,66,30.04,29.94,15,2,0,0.00
2014-5-11,85.3,74.3,63.8,71.0,67.0,62.0,96,79,55,30.08,29.97,7,1,0,0.00
2014-5-12,87.3,76.1,66.7,69.0,66.0,63.0,94,73,46,30.10,30.00,12,2,0,0.00
2014-5-13,88.1,76.1,66.8,71.0,66.1,62.0,91,73,47,30.07,29.97,11,2,0,0.00
2014-5-14,76.9,69.8,62.0,70.0,66.2,59.0,94,88,74,30.01,29.84,15,2,0,0.43
2014-5-15,62.3,56.0,48.5,58.0,49.0,46.0,92,78,57,30.09,29.89,15,5,0,0.00
2014-5-16,66.5,55.5,43.8,51.0,42.6,35.0,95,67,32,30.09,30.01,13,4,0,0.01
2014-5-17,67.7,56.1,46.3,57.0,50.8,43.0,93,83,66,30.21,30.07,10,1,0,0.14
2014-5-18,66.9,59.6,56.2,60.0,56.7,54.0,96,90,70,30.20,30.11,12,1,0,0.73
2014-5-19,78.1,64.6,52.5,66.0,58.4,51.0,97,82,61,30.23,30.11,9,2,0,0.01
2014-5-20,84.4,70.7,60.0,64.0,59.1,54.0,95,70,35,30.19,30.04,19,2,0,0.00
2014-5-21,85.7,73.4,62.0,66.0,62.0,59.0,92,70,46,30.13,30.01,15,3,0,0.00
2014-5-22,86.8,74.4,61.3,70.0,65.0,59.0,94,74,52,30.10,29.99,12,2,0,0.00
2014-5-23,88.2,76.1,64.4,68.0,65.4,63.0,95,72,46,30.05,29.97,8,2,0,0.00
2014-5-24,87.4,74.4,63.6,72.0,66.4,61.0,92,77,51,30.08,29.98,8,1,0,0.00
2014-5-25,88.7,76.0,65.0,71.0,66.4,58.0,96,75,37,30.08,29.99,16,2,0,0.00
2014-5-26,88.9,75.1,66.6,73.0,67.9,65.0,94,80,54,30.14,30.01,6,1,0,0.35
2014-5-27,84.2,74.6,66.2,71.0,67.8,64.0,94,80,57,30.08,29.94,8,1,0,0.00
2014-5-28,84.2,73.3,65.2,71.0,66.2,64.0,95,80,56,30.00,29.91,16,1,0,0.00
2014-5-29,76.9,70.2,65.9,71.0,66.8,63.0,96,89,77,30.00,29.91,8,0,0,0.90
2014-5-30,84.0,73.1,66.8,72.0,68.5,66.0,97,86,64,30.02,29.95,10,2,0,0.01
2014-5-31,87.9,76.1,65.0,72.0,68.0,64.0,96,78,54,30.06,29.93,9,2,0,0.00
2014-6-1,82.6,75.1,70.7,72.0,67.8,65.0,90,78,65,30.11,30.02,13,2,0,0.10
2014-6-2,80.5,73.6,67.8,66.0,64.0,60.0,90,73,55,30.14,30.04,10,2,0,0.00
2014-6-3,83.1,74.0,65.2,73.0,68.4,63.0,94,83,65,30.08,29.94,8,1,0,0.01
2014-6-4,86.1,77.3,68.5,72.0,70.3,67.0,96,80,60,29.96,29.79,13,2,0,0.01
2014-6-5,87.8,74.5,66.7,74.0,68.8,65.0,94,83,60,29.92,29.72,14,3,0,0.10
2014-6-6,83.6,71.4,64.2,74.0,68.0,63.0,97,89,70,29.93,29.78,9,1,0,0.26
2014-6-7,88.7,76.7,67.1,73.0,69.0,65.0,96,79,51,29.98,29.83,9,1,0,0.54
2014-6-8,84.7,73.9,65.2,73.0,68.4,64.0,96,84,66,29.97,29.82,11,2,0,0.09
2014-6-9,84.6,73.6,66.2,73.0,68.7,65.0,96,85,61,29.91,29.79,9,1,0,0.95
2014-6-10,82.9,70.5,65.9,74.0,67.5,65.0,96,90,72,29.86,29.76,16,2,0,0.77
2014-6-11,77.8,70.2,66.7,70.0,66.6,65.0,94,88,70,29.82,29.74,9,2,0,0.23
2014-6-12,83.2,73.4,66.0,70.0,67.1,65.0,95,82,60,29.89,29.79,11,2,0,0.00
2014-6-13,82.8,73.8,66.7,70.0,67.0,65.0,95,80,60,29.93,29.82,12,3,0,0.00
2014-6-14,85.3,74.8,63.8,69.0,66.0,62.0,95,76,53,30.00,29.91,8,2,0,0.00
2014-6-15,89.7,77.6,67.2,74.0,68.9,66.0,96,77,49,30.07,29.95,11,1,0,0.00
2014-6-16,91.2,79.0,67.3,73.0,68.6,65.0,96,73,43,30.15,30.02,8,1,0,0.00
2014-6-17,92.3,80.6,68.7,75.0,70.8,67.0,95,74,46,30.14,30.01,6,1,0,0.00
2014-6-18,91.1,79.2,71.4,78.0,72.2,68.0,95,80,54,30.09,30.00,10,1,0,0.00
2014-6-19,93.0,81.2,70.8,75.0,72.2,69.0,96,76,48,30.11,29.99,7,1,0,0.00
2014-6-20,93.4,80.5,71.1,76.0,72.5,69.0,95,78,52,30.04,29.93,8,1,0,0.00
2014-6-21,91.3,80.8,70.4,75.0,71.2,68.0,94,74,52,29.97,29.82,10,2,0,0.00
2014-6-22,91.7,78.7,69.0,75.0,70.3,67.0,94,77,51,29.91,29.79,9,1,0,0.00
2014-6-23,91.4,76.6,68.6,73.0,69.8,67.0,96,81,51,29.97,29.85,16,2,0,0.69
2014-6-24,84.1,73.6,68.3,73.0,69.9,66.0,97,89,64,30.01,29.91,13,1,0,0.40
2014-6-25,87.2,77.4,70.8,76.0,71.0,69.0,95,81,59,30.04,29.93,8,1,0,0.03
2014-6-26,78.9,73.8,68.5,73.0,70.3,67.0,95,89,75,30.01,29.91,5,0,0,0.64
2014-6-27,84.2,74.7,68.4,74.0,70.6,67.0,97,87,67,30.09,29.98,14,1,0,0.75
2014-6-28,85.7,76.7,68.8,73.0,70.3,68.0,97,82,61,30.13,30.03,10,1,0,0.08
2014-6-29,88.2,76.9,69.7,75.0,71.6,68.0,95,84,62,30.14,30.01,9,1,0,0.09
2014-6-30,90.6,78.6,70.5,79.0,73.7,69.0,96,85,66,30.04,29.88,9,1,0,0.04
2014-7-1,92.1,80.5,70.9,76.0,73.1,70.0,97,80,54,29.97,29.83,9,1,0,0.01
2014-7-2,91.9,82.1,71.5,74.0,71.3,69.0,94,72,49,29.97,29.88,10,2,0,0.00
2014-7-3,83.2,77.1,71.2,70.0,64.1,58.0,86,66,45,30.07,29.91,13,6,0,0.00
2014-7-4,81.3,73.4,64.5,62.0,60.6,56.0,86,66,49,30.15,30.07,11,6,0,0.00
2014-7-5,88.8,75.8,64.5,67.0,61.2,55.0,83,62,38,30.17,30.06,11,1,0,0.00
2014-7-6,89.9,76.9,65.8,72.0,66.2,60.0,87,71,44,30.09,29.95,8,1,0,0.00
2014-7-7,89.4,78.5,66.9,71.0,67.5,62.0,95,71,44,30.01,29.90,11,2,0,0.00
2014-7-8,88.5,77.1,70.4,73.0,70.4,67.0,96,81,57,30.01,29.89,15,3,0,0.46
2014-7-9,84.9,75.8,69.4,74.0,70.2,68.0,96,84,61,30.00,29.92,11,2,0,0.08
2014-7-10,87.9,78.0,70.6,74.0,71.2,69.0,95,81,56,30.04,29.95,8,1,0,0.01
2014-7-11,90.0,79.4,69.7,72.0,70.1,67.0,96,75,48,30.11,30.02,9,2,0,0.00
2014-7-12,91.5,81.1,71.0,76.0,72.7,69.0,93,77,56,30.13,30.01,10,2,0,0.00
2014-7-13,90.4,79.6,70.8,76.0,72.5,69.0,95,80,55,30.07,29.95,11,0,0,0.00
2014-7-14,93.0,82.1,73.6,76.0,72.8,70.0,93,75,52,29.98,29.82,13,3,0,0.02
2014-7-15,82.7,74.5,69.9,73.0,68.7,60.0,96,83,61,29.89,29.79,11,3,0,0.04
2014-7-16,79.7,71.9,64.1,61.0,57.8,55.0,78,63,44,29.95,29.87,13,5,0,0.00
2014-7-17,80.7,71.1,60.7,64.0,58.9,54.0,89,67,42,30.01,29.94,8,2,0,0.00
2014-7-18,71.4,68.7,66.6,69.0,66.3,63.0,96,91,85,30.06,29.96,6,0,0,0.00
2014-7-19,85.2,75.4,67.8,73.0,70.2,66.0,95,84,65,29.97,29.89,13,2,0,0.00
2014-7-20,87.4,77.0,68.2,73.0,69.5,67.0,96,79,57,29.99,29.92,0,0,0,0.00
2014-7-21,83.4,76.4,72.4,74.0,72.3,71.0,96,87,74,30.02,29.93,10,2,0,0.00
2014-7-22,87.5,78.8,72.8,75.0,72.2,71.0,94,81,59,30.06,29.97,7,0,0,0.00
2014-7-23,90.0,78.6,71.0,75.0,72.3,69.0,95,82,52,30.04,29.90,8,1,0,0.00
2014-7-24,85.8,77.0,70.1,73.0,70.5,67.0,96,82,56,29.95,29.87,13,2,0,0.00
2014-7-25,87.0,76.2,66.9,71.0,67.2,66.0,96,76,50,30.01,29.91,8,1,0,0.00
2014-7-26,90.8,77.5,63.8,71.0,67.0,62.0,96,73,45,30.01,29.92,7,1,0,0.00
2014-7-27,92.7,81.7,69.8,77.0,72.9,68.0,94,76,55,29.98,29.84,12,3,0,0.00
2014-7-28,84.7,80.1,70.9,76.0,67.9,62.0,92,68,47,29.95,29.84,19,5,0,0.00
2014-7-29,78.2,71.4,63.0,64.0,59.3,51.0,87,67,40,30.02,29.93,13,4,0,0.00
2014-7-30,82.2,69.8,56.7,64.0,58.5,55.0,94,70,44,30.05,29.99,10,2,0,0.00
2014-7-31,78.8,72.9,69.2,67.0,64.9,62.0,87,76,65,30.03,29.98,8,2,0,0.00
2014-8-1,85.0,74.8,66.0,70.0,67.3,64.0,95,79,58,30.03,29.93,9,2,0,0.00
2014-8-2,84.0,74.7,69.2,71.0,68.0,66.0,93,80,63,30.04,29.95,15,2,0,0.00
2014-8-3,87.4,77.0,67.1,72.0,68.8,66.0,96,77,54,30.05,29.94,12,3,0,0.00
2014-8-4,89.0,77.7,68.2,69.0,66.4,60.0,93,71,39,30.04,29.94,9,2,0,0.00
2014-8-5,91.5,77.2,65.9,69.0,63.2,58.0,94,66,32,30.05,29.96,9,1,0,0.00
2014-8-6,92.2,79.8,65.4,72.0,67.1,62.0,88,67,46,30.01,29.91,8,1,0,0.00
2014-8-7,95.1,81.3,70.1,75.0,70.7,68.0,95,73,42,29.96,29.83,12,2,0,0.00
2014-8-8,91.9,76.7,69.3,75.0,71.2,68.0,97,84,53,29.96,29.86,11,1,0,0.00
2014-8-9,87.2,75.4,70.3,76.0,72.1,69.0,97,89,68,29.98,29.89,10,1,0,0.00
2014-8-10,87.5,76.7,71.8,76.0,72.5,70.0,96,88,66,29.99,29.88,10,1,0,0.00
2014-8-11,89.1,78.0,71.2,77.0,73.1,70.0,97,86,64,29.95,29.83,13,1,0,0.00
2014-8-12,89.1,79.4,71.1,74.0,70.6,63.0,95,76,52,29.90,29.80,12,2,0,0.00
2014-8-13,81.2,73.8,66.6,64.0,61.5,57.0,80,67,52,30.01,29.90,11,4,0,0.00
2014-8-14,83.2,71.8,60.3,64.0,61.8,59.0,96,73,49,30.04,29.93,7,2,0,0.00
2014-8-15,86.3,73.7,61.2,68.0,63.3,60.0,96,73,44,30.02,29.93,10,1,0,0.00
2014-8-16,92.1,76.9,63.9,70.0,65.3,62.0,96,71,39,30.00,29.91,6,1,0,0.00
2014-8-17,91.4,78.2,65.9,74.0,69.1,63.0,93,75,51,29.97,29.87,12,3,0,0.00
2014-8-18,87.7,75.7,70.9,75.0,71.4,69.0,96,87,64,29.92,29.80,12,2,0,0.00
2014-8-19,89.5,77.2,70.2,76.0,71.6,69.0,97,84,60,29.89,29.81,7,1,0,0.00
2014-8-20,93.5,81.1,71.4,77.0,72.8,68.0,94,77,56,30.06,29.88,10,2,0,0.00
2014-8-21,93.1,80.8,68.8,76.0,72.1,67.0,94,77,53,30.08,29.99,8,1,0,0.00
2014-8-22,95.4,82.6,72.0,76.0,73.6,71.0,96,76,50,30.07,29.93,8,1,0,0.00
2014-8-23,93.5,81.3,71.1,77.0,73.6,70.0,95,79,52,29.98,29.85,13,1,0,0.00
2014-8-24,92.0,79.6,73.3,77.0,73.6,71.0,94,83,60,29.93,29.82,11,2,0,0.00
2014-8-25,85.2,77.8,72.2,72.0,69.5,67.0,93,77,58,30.02,29.93,8,1,0,0.00
2014-8-26,86.0,76.7,66.5,70.0,65.7,61.0,91,70,51,30.10,29.98,10,2,0,0.00
2014-8-27,89.1,77.6,68.5,70.0,67.4,64.0,96,74,46,30.07,29.95,7,1,0,0.00
2014-8-28,91.1,78.2,68.4,74.0,68.4,65.0,95,75,44,30.00,29.89,7,1,0,0.00
2014-8-29,92.8,77.8,65.9,71.0,65.0,58.0,92,68,32,30.01,29.92,6,1,0,0.00
2014-8-30,87.8,75.2,70.6,76.0,70.8,66.0,97,86,65,30.08,29.95,11,1,0,0.00
2014-8-31,88.6,76.2,68.6,76.0,71.6,68.0,97,86,62,30.08,30.00,9,1,0,0.00
2014-9-1,93.0,80.6,72.2,76.0,72.3,70.0,96,78,49,30.06,29.94,9,1,0,0.00
2014-9-2,85.5,75.6,71.7,75.0,71.7,70.0,95,88,67,30.04,29.98,9,1,0,0.00